| time (UTC) | temp C | wind direction | speed KPH | gust KPH | rain 1hr cm | rain 24hr cm | rain mn cm | humidity % | barometer mb |
| 20260504220903 | 10 | 269 | 6.4 | 16.1 | 0.00 | 0.00 | 0.00 | 58 | 1003.1 |
| 20260504220403 | 10 | 241 | 6.4 | 16.1 | 0.00 | 0.00 | 0.00 | 59 | 1003.1 |
| 20260504220122 | 10 | 265 | 6.4 | 9.7 | 0.00 | 0.00 | 0.00 | 58 | 1003.2 |
| 20260504215402 | 9 | 266 | 6.4 | 11.3 | 0.00 | 0.00 | 0.00 | 60 | 1003.2 |
| 20260504215131 | 9 | 257 | 8.0 | 11.3 | 0.00 | 0.00 | 0.00 | 60 | 1003.2 |
| 20260504214402 | 9 | 259 | 4.8 | 8.0 | 0.00 | 0.00 | 0.00 | 60 | 1003.2 |
| 20260504213902 | 10 | 266 | 6.4 | 8.0 | 0.00 | 0.00 | 0.00 | 60 | 1003.2 |
| 20260504213402 | 10 | 261 | 4.8 | 8.0 | 0.00 | 0.00 | 0.00 | 60 | 1003.2 |
| 20260504212903 | 10 | 252 | 3.2 | 11.3 | 0.00 | 0.00 | 0.00 | 60 | 1003.3 |
| 20260504212402 | 10 | 248 | 4.8 | 11.3 | 0.00 | 0.00 | 0.00 | 60 | 1003.2 |
| 20260504211902 | 10 | 306 | 4.8 | 9.7 | 0.00 | 0.00 | 0.00 | 60 | 1003.3 |
| 20260504211403 | 10 | 265 | 3.2 | 9.7 | 0.00 | 0.00 | 0.00 | 60 | 1003.3 |
| 20260504210903 | 10 | 279 | 3.2 | 8.0 | 0.00 | 0.00 | 0.00 | 59 | 1003.4 |
| 20260504210402 | 10 | 266 | 4.8 | 6.4 | 0.00 | 0.00 | 0.00 | 60 | 1003.3 |
| 20260504210128 | 10 | 285 | 3.2 | 8.0 | 0.00 | 0.00 | 0.00 | 60 | 1003.3 |
| 20260504205402 | 10 | 281 | 4.8 | 17.7 | 0.00 | 0.00 | 0.00 | 60 | 1003.4 |
| 20260504204902 | 10 | 259 | 8.0 | 17.7 | 0.00 | 0.00 | 0.00 | 61 | 1003.3 |
| 20260504204402 | 10 | 283 | 4.8 | 11.3 | 0.00 | 0.00 | 0.00 | 62 | 1003.3 |
| 20260504204344 | 10 | 283 | 4.8 | 11.3 | 0.00 | 0.00 | 0.00 | 63 | 1003.3 |
| 20260504203844 | 10 | 230 | 4.8 | 11.3 | 0.00 | 0.00 | 0.00 | 64 | 1003.3 |
| 20260504202902 | 10 | 269 | 3.2 | 8.0 | 0.00 | 0.00 | 0.00 | 64 | 1003.3 |
| 20260504202402 | 10 | 266 | 4.8 | 8.0 | 0.00 | 0.00 | 0.00 | 64 | 1003.3 |
| 20260504201904 | 10 | 261 | 3.2 | 8.0 | 0.00 | 0.00 | 0.00 | 64 | 1003.3 |
| 20260504201404 | 10 | 309 | 4.8 | 8.0 | 0.00 | 0.00 | 0.00 | 64 | 1003.2 |
| 20260504200903 | 10 | 248 | 4.8 | 8.0 | 0.00 | 0.00 | 0.00 | 65 | 1003.3 |
| 20260504200852 | 10 | 303 | 3.2 | 8.0 | 0.00 | 0.00 | 0.00 | 65 | 1003.2 |
| 20260504195902 | 10 | 257 | 4.8 | 8.0 | 0.00 | 0.00 | 0.00 | 64 | 1003.3 |
| 20260504195403 | 11 | 265 | 3.2 | 6.4 | 0.00 | 0.00 | 0.00 | 64 | 1003.2 |
| 20260504194903 | 11 | 259 | 3.2 | 6.4 | 0.00 | 0.00 | 0.00 | 64 | 1003.2 |
| 20260504194405 | 11 | 248 | 3.2 | 6.4 | 0.00 | 0.00 | 0.00 | 65 | 1003.2 |
| 20260504193905 | 11 | 275 | 3.2 | 6.4 | 0.00 | 0.00 | 0.00 | 64 | 1003.1 |
| 20260504193403 | 11 | 265 | 3.2 | 6.4 | 0.00 | 0.00 | 0.00 | 64 | 1003.1 |
| 20260504192904 | 11 | 254 | 1.6 | 9.7 | 0.00 | 0.00 | 0.00 | 64 | 1003.2 |
| 20260504192404 | 11 | 261 | 3.2 | 9.7 | 0.00 | 0.00 | 0.00 | 64 | 1003.1 |
| 20260504191903 | 11 | 268 | 3.2 | 6.4 | 0.00 | 0.00 | 0.00 | 64 | 1003.1 |
| 20260504191405 | 11 | 272 | 3.2 | 4.8 | 0.00 | 0.00 | 0.00 | 64 | 1003.0 |
| 20260504190904 | 11 | 305 | 3.2 | 9.7 | 0.00 | 0.00 | 0.00 | 63 | 1003.0 |
| 20260504190405 | 12 | 281 | 6.4 | 9.7 | 0.00 | 0.00 | 0.00 | 63 | 1003.1 |
| 20260504185904 | 12 | 274 | 4.8 | 8.0 | 0.00 | 0.00 | 0.00 | 63 | 1003.1 |
| 20260504185403 | 12 | 269 | 3.2 | 9.7 | 0.00 | 0.00 | 0.00 | 63 | 1003.1 |
| 20260504185133 | 12 | 266 | 6.4 | 9.7 | 0.00 | 0.00 | 0.00 | 63 | 1003.1 |
| 20260504184404 | 12 | 276 | 3.2 | 9.7 | 0.00 | 0.00 | 0.00 | 64 | 1003.0 |
| 20260504183904 | 12 | 286 | 3.2 | 9.7 | 0.00 | 0.00 | 0.00 | 63 | 1003.1 |
| 20260504183403 | 12 | 298 | 3.2 | 11.3 | 0.00 | 0.00 | 0.00 | 63 | 1003.1 |
| 20260504183129 | 12 | 275 | 8.0 | 11.3 | 0.00 | 0.00 | 0.00 | 63 | 1003.1 |
| 20260504182403 | 12 | 276 | 4.8 | 11.3 | 0.00 | 0.00 | 0.00 | 62 | 1003.0 |
| 20260504181903 | 12 | 285 | 4.8 | 11.3 | 0.00 | 0.00 | 0.00 | 62 | 1003.1 |
| 20260504181403 | 12 | 296 | 6.4 | 8.0 | 0.00 | 0.00 | 0.00 | 62 | 1003.0 |
| 20260504180903 | 12 | 274 | 4.8 | 16.1 | 0.00 | 0.00 | 0.00 | 62 | 1003.0 |
| 20260504180403 | 13 | 296 | 8.0 | 16.1 | 0.00 | 0.00 | 0.00 | 61 | 1003.0 |
| 20260504180123 | 13 | 303 | 6.4 | 14.5 | 0.00 | 0.00 | 0.00 | 62 | 1002.9 |
| 20260504175403 | 12 | 319 | 9.7 | 16.1 | 0.00 | 0.00 | 0.00 | 62 | 1002.9 |
| 20260504174903 | 12 | 300 | 6.4 | 16.1 | 0.00 | 0.00 | 0.00 | 61 | 1002.9 |
| 20260504174403 | 13 | 296 | 6.4 | 17.7 | 0.00 | 0.00 | 0.00 | 61 | 1002.9 |
| 20260504173904 | 13 | 285 | 8.0 | 20.9 | 0.00 | 0.00 | 0.00 | 60 | 1002.8 |
| 20260504173403 | 13 | 288 | 9.7 | 20.9 | 0.00 | 0.00 | 0.00 | 59 | 1002.8 |
| 20260504172903 | 13 | 275 | 8.0 | 16.1 | 0.00 | 0.00 | 0.00 | 59 | 1002.8 |
| 20260504172403 | 13 | 303 | 11.3 | 20.9 | 0.00 | 0.00 | 0.00 | 58 | 1002.8 |
| 20260504171903 | 13 | 310 | 9.7 | 25.7 | 0.00 | 0.00 | 0.00 | 57 | 1002.8 |
| 20260504171403 | 13 | 289 | 17.7 | 25.7 | 0.00 | 0.00 | 0.00 | 58 | 1002.7 |
| 20260504170904 | 13 | 298 | 11.3 | 24.1 | 0.00 | 0.00 | 0.00 | 57 | 1002.7 |
| 20260504170403 | 13 | 258 | 11.3 | 25.7 | 0.00 | 0.00 | 0.00 | 56 | 1002.7 |
| 20260504160404 | 15 | 238 | 8.0 | 19.3 | 0.00 | 0.00 | 0.00 | 65 | 1002.0 |
| 20260504150903 | 14 | 195 | 6.4 | 16.1 | 0.00 | 0.00 | 0.00 | 74 | 1001.6 |
| 20260504150403 | 14 | 248 | 8.0 | 17.7 | 0.00 | 0.00 | 0.00 | 74 | 1001.6 |
| 20260504140903 | 13 | 202 | 9.7 | 16.1 | 0.00 | 0.00 | 0.00 | 75 | 1001.9 |
| 20260504140621 | 13 | 265 | 8.0 | 16.1 | 0.00 | 0.00 | 0.00 | 76 | 1001.9 |
| 20260504130403 | 13 | 183 | 11.3 | 16.1 | 0.00 | 0.00 | 0.00 | 79 | 1002.3 |
| 20260504110403 | 11 | 269 | 6.4 | 14.5 | 0.00 | 0.00 | 0.00 | 85 | 1003.1 |
| 20260504110128 | 11 | 266 | 9.7 | 14.5 | 0.00 | 0.00 | 0.00 | 86 | 1003.1 |
| 20260504100403 | 10 | 265 | 3.2 | 8.0 | 0.00 | 0.00 | 0.00 | 90 | 1003.2 |
| 20260504081403 | 7 | 180 | 3.2 | 4.8 | 0.00 | 0.00 | 0.00 | 93 | 1003.4 |
| 20260504080903 | 6 | 164 | 3.2 | 6.4 | 0.00 | 0.00 | 0.00 | 93 | 1003.4 |
| 20260504080403 | 6 | 179 | 3.2 | 6.4 | 0.00 | 0.00 | 0.00 | 93 | 1003.4 |
| 20260504050404 | 4 | 182 | 3.2 | 4.8 | 0.00 | 0.00 | 0.00 | 89 | 1004.9 |
| 20260504050124 | 4 | 188 | 1.6 | 6.4 | 0.00 | 0.00 | 0.00 | 89 | 1005.0 |
| 20260504045403 | 4 | 199 | 1.6 | 6.4 | 0.00 | 0.00 | 0.00 | 89 | 1005.0 |
| 20260504044903 | 4 | 203 | 3.2 | 6.4 | 0.00 | 0.00 | 0.00 | 88 | 1005.1 |
| 20260504044404 | 4 | 185 | 3.2 | 6.4 | 0.00 | 0.00 | 0.00 | 88 | 1005.1 |
| 20260504043904 | 4 | 164 | 3.2 | 6.4 | 0.00 | 0.00 | 0.00 | 87 | 1005.1 |
| 20260504043404 | 5 | 164 | 3.2 | 3.2 | 0.00 | 0.00 | 0.00 | 87 | 1005.2 |
| 20260504043128 | 5 | 164 | 0.0 | 0.0 | 0.00 | 0.00 | 0.00 | 86 | 1005.3 |
| 20260504042404 | 5 | 164 | 0.0 | 0.0 | 0.00 | 0.00 | 0.00 | 85 | 1005.3 |
| 20260504041903 | 5 | 164 | 0.0 | 0.0 | 0.00 | 0.00 | 0.00 | 84 | 1005.3 |
| 20260504041403 | 5 | 164 | 0.0 | 0.0 | 0.00 | 0.00 | 0.00 | 83 | 1005.2 |
| 20260504040903 | 5 | 164 | 0.0 | 0.0 | 0.00 | 0.00 | 0.00 | 83 | 1005.1 |
| 20260504040403 | 5 | 164 | 0.0 | 0.0 | 0.00 | 0.00 | 0.00 | 81 | 1005.2 |
| 20260504035903 | 5 | 164 | 0.0 | 1.6 | 0.00 | 0.00 | 0.00 | 81 | 1005.2 |
| 20260504035404 | 5 | 164 | 0.0 | 4.8 | 0.00 | 0.00 | 0.00 | 81 | 1005.0 |
| 20260504034903 | 5 | 164 | 1.6 | 4.8 | 0.00 | 0.00 | 0.00 | 80 | 1005.1 |
| 20260504034403 | 5 | 164 | 1.6 | 3.2 | 0.00 | 0.00 | 0.00 | 80 | 1005.2 |
| 20260504034123 | 5 | 164 | 0.0 | 3.2 | 0.00 | 0.00 | 0.00 | 80 | 1005.3 |
| 20260504033403 | 5 | 164 | 3.2 | 3.2 | 0.00 | 0.00 | 0.00 | 80 | 1005.3 |
| 20260504032903 | 5 | 164 | 0.0 | 0.0 | 0.00 | 0.00 | 0.00 | 80 | 1005.4 |
| 20260504032621 | 5 | 164 | 0.0 | 0.0 | 0.00 | 0.00 | 0.00 | 79 | 1005.5 |
| 20260504031903 | 5 | 164 | 0.0 | 0.0 | 0.00 | 0.00 | 0.00 | 79 | 1005.5 |
| 20260504031403 | 5 | 164 | 0.0 | 0.0 | 0.00 | 0.00 | 0.00 | 78 | 1005.6 |
| 20260504030903 | 5 | 164 | 0.0 | 3.2 | 0.00 | 0.00 | 0.00 | 77 | 1005.7 |
| 20260504030403 | 5 | 164 | 0.0 | 3.2 | 0.00 | 0.00 | 0.00 | 77 | 1005.7 |
| 20260504025903 | 5 | 164 | 1.6 | 1.6 | 0.00 | 0.00 | 0.00 | 77 | 1005.8 |
| 20260504025403 | 5 | 164 | 0.0 | 1.6 | 0.00 | 0.00 | 0.00 | 77 | 1006.0 |
| 20260504024902 | 5 | 164 | 0.0 | 3.2 | 0.00 | 0.00 | 0.00 | 76 | 1006.1 |
| 20260504024623 | 5 | 164 | 0.0 | 3.2 | 0.00 | 0.00 | 0.00 | 76 | 1006.2 |
| 20260504023904 | 5 | 164 | 0.0 | 1.6 | 0.00 | 0.00 | 0.00 | 76 | 1006.4 |
| 20260504023404 | 5 | 164 | 0.0 | 1.6 | 0.00 | 0.00 | 0.00 | 76 | 1006.4 |
| 20260504022903 | 5 | 164 | 0.0 | 3.2 | 0.00 | 0.00 | 0.00 | 76 | 1006.5 |
| 20260504022403 | 5 | 164 | 3.2 | 3.2 | 0.00 | 0.00 | 0.00 | 76 | 1006.4 |
| 20260504022126 | 5 | 164 | 0.0 | 0.0 | 0.00 | 0.00 | 0.00 | 77 | 1006.3 |
| 20260504021404 | 5 | 164 | 0.0 | 0.0 | 0.00 | 0.00 | 0.00 | 76 | 1006.2 |
| 20260504020903 | 5 | 164 | 0.0 | 0.0 | 0.00 | 0.00 | 0.00 | 77 | 1006.3 |
| 20260504020403 | 5 | 164 | 0.0 | 1.6 | 0.00 | 0.00 | 0.00 | 76 | 1006.3 |
| 20260504015903 | 5 | 164 | 0.0 | 3.2 | 0.00 | 0.00 | 0.00 | 76 | 1006.4 |
| 20260504015403 | 5 | 164 | 0.0 | 3.2 | 0.00 | 0.00 | 0.00 | 76 | 1006.5 |
| 20260504014903 | 5 | 164 | 1.6 | 4.8 | 0.00 | 0.00 | 0.00 | 76 | 1006.5 |
| 20260504014404 | 5 | 164 | 1.6 | 4.8 | 0.00 | 0.00 | 0.00 | 76 | 1006.5 |
| 20260504013903 | 5 | 164 | 1.6 | 4.8 | 0.00 | 0.00 | 0.00 | 76 | 1006.6 |
| 20260504013403 | 5 | 164 | 3.2 | 4.8 | 0.00 | 0.00 | 0.00 | 76 | 1006.7 |
| 20260504012857 | 5 | 164 | 3.2 | 4.8 | 0.00 | 0.00 | 0.00 | 75 | 1006.6 |
| 20260504012350 | 5 | 164 | 3.2 | 4.8 | 0.00 | 0.00 | 0.00 | 75 | 1006.8 |
| 20260504011840 | 5 | 164 | 3.2 | 4.8 | 0.00 | 0.00 | 0.00 | 75 | 1006.8 |
| 20260504011337 | 5 | 164 | 1.6 | 4.8 | 0.00 | 0.00 | 0.00 | 75 | 1006.8 |
| 20260504011105 | 5 | 164 | 3.2 | 6.4 | 0.00 | 0.00 | 0.00 | 75 | 1006.9 |
| 20260504010331 | 5 | 164 | 3.2 | 6.4 | 0.00 | 0.00 | 0.00 | 75 | 1006.9 |
| 20260504005830 | 5 | 165 | 3.2 | 9.7 | 0.00 | 0.00 | 0.00 | 75 | 1007.0 |
| 20260504005330 | 6 | 165 | 3.2 | 9.7 | 0.00 | 0.00 | 0.00 | 74 | 1007.1 |
| 20260504004831 | 6 | 158 | 1.6 | 6.4 | 0.00 | 0.00 | 0.00 | 74 | 1007.2 |
| 20260504004331 | 6 | 158 | 3.2 | 6.4 | 0.00 | 0.00 | 0.00 | 74 | 1007.2 |
| 20260504003831 | 6 | 155 | 3.2 | 6.4 | 0.00 | 0.00 | 0.00 | 75 | 1007.3 |
| 20260504003330 | 6 | 155 | 4.8 | 6.4 | 0.00 | 0.00 | 0.00 | 75 | 1007.4 |
| 20260504002831 | 6 | 165 | 1.6 | 4.8 | 0.00 | 0.00 | 0.00 | 75 | 1007.3 |
| 20260504002330 | 6 | 165 | 1.6 | 4.8 | 0.00 | 0.00 | 0.00 | 75 | 1007.4 |
| 20260504001830 | 6 | 165 | 1.6 | 4.8 | 0.00 | 0.00 | 0.00 | 76 | 1007.5 |
| 20260504001331 | 6 | 165 | 1.6 | 3.2 | 0.00 | 0.00 | 0.00 | 76 | 1007.5 |
| 20260504001056 | 6 | 165 | 0.0 | 0.0 | 0.00 | 0.00 | 0.00 | 76 | 1007.5 |
| 20260504000332 | 6 | 165 | 0.0 | 1.6 | 0.00 | 0.00 | 0.00 | 77 | 1007.6 |
| 20260503235831 | 6 | 165 | 0.0 | 4.8 | 0.00 | 0.00 | 0.00 | 77 | 1007.6 |
| 20260503235331 | 6 | 165 | 3.2 | 4.8 | 0.00 | 0.00 | 0.00 | 76 | 1007.6 |
| 20260503235048 | 6 | 165 | 1.6 | 3.2 | 0.00 | 0.00 | 0.00 | 76 | 1007.7 |
| 20260503234331 | 6 | 165 | 0.0 | 3.2 | 0.00 | 0.00 | 0.00 | 76 | 1007.8 |
| 20260503233831 | 6 | 165 | 1.6 | 3.2 | 0.00 | 0.00 | 0.00 | 76 | 1007.9 |
| 20260503233330 | 6 | 166 | 0.0 | 3.2 | 0.00 | 0.00 | 0.00 | 77 | 1007.9 |
| 20260503232830 | 6 | 166 | 1.6 | 4.8 | 0.00 | 0.00 | 0.00 | 76 | 1008.0 |
| 20260503232324 | 6 | 166 | 3.2 | 4.8 | 0.00 | 0.00 | 0.00 | 77 | 1008.0 |
| 20260503231817 | 6 | 162 | 3.2 | 4.8 | 0.00 | 0.00 | 0.00 | 77 | 1008.0 |
| 20260503231537 | 6 | 162 | 0.0 | 3.2 | 0.00 | 0.00 | 0.00 | 77 | 1008.0 |
| 20260503230814 | 6 | 162 | 1.6 | 6.4 | 0.00 | 0.00 | 0.00 | 77 | 1008.2 |
| 20260503230310 | 6 | 161 | 1.6 | 6.4 | 0.00 | 0.00 | 0.00 | 76 | 1008.2 |
| 20260503225809 | 6 | 178 | 0.0 | 3.2 | 0.00 | 0.00 | 0.00 | 77 | 1008.1 |
| 20260503225308 | 6 | 179 | 1.6 | 4.8 | 0.00 | 0.00 | 0.00 | 77 | 1008.2 |
| 20260503225028 | 6 | 179 | 1.6 | 4.8 | 0.00 | 0.00 | 0.00 | 77 | 1008.2 |
| 20260503224308 | 6 | 179 | 3.2 | 4.8 | 0.00 | 0.00 | 0.00 | 77 | 1008.3 |
| 20260503224026 | 6 | 179 | 1.6 | 4.8 | 0.00 | 0.00 | 0.00 | 77 | 1008.3 |
| 20260503223308 | 6 | 171 | 3.2 | 4.8 | 0.00 | 0.00 | 0.00 | 78 | 1008.3 |
| 20260503222808 | 6 | 171 | 3.2 | 4.8 | 0.00 | 0.00 | 0.00 | 78 | 1008.3 |
| 20260503222308 | 6 | 171 | 3.2 | 6.4 | 0.00 | 0.00 | 0.00 | 79 | 1008.4 |
| 20260503221808 | 6 | 169 | 3.2 | 6.4 | 0.00 | 0.00 | 0.00 | 79 | 1008.4 |